Merced, CA

12:59 AM PDT on June 20, 2018 (GMT -0700)
Merced Municipal-Macready

Weather History for KMCE - October, 2017

Change the Weather History Date:

Monday, October 9, 2017

  Actual Average Record
Temperature  
Mean Temperature 63 °F 66 °F  
Max Temperature 81 °F 81 °F 92 °F (2002)
Min Temperature 44 °F 50 °F 44 °F (2007)
Degree Days  
Heating Degree Days 2    
Month to date heating degree days 13  
Since 1 July heating degree days 22  
Cooling Degree Days 0    
Month to date cooling degree days 7  
Year to date cooling degree days 1824  
Growing Degree Days 14 (Base 50)    
Moisture  
Dew Point 33 °F    
Average Humidity 42    
Maximum Humidity 71    
Minimum Humidity 13    
Precipitation  
Precipitation 0.00 in 0.01 in 0.10 in (2013)
Month to date precipitation 0.00 0.09  
Year to date precipitation 11.82 9.08  
Snow  
Snow 0.00 in - - ()
Month to date snowfall 0.0  
Since 1 July snowfall 0.0  
Since 1 September snowfall 0.0  
Snow Depth 0.00 in    
Sea Level Pressure  
Sea Level Pressure 29.89 in    
Wind  
Wind Speed 3 mph (SE)    
Max Wind Speed 13 mph    
Max Gust Speed 18 mph    
Visibility 10 miles    
Events      
T = Trace of Precipitation, MM = Missing Value Source: NWS Daily Summary

Daily Weather History Graph

Daily Weather History Graph

Search for Another Location

Airport or City:

Astronomy

Oct. 09, 2017 Rise Set
Actual Time 7:04 AM PDT 6:32 PM PDT
Civil Twilight 6:38 AM PDT 6:59 PM PDT
Nautical Twilight 6:08 AM PDT 7:29 PM PDT
Astronomical Twilight 5:38 AM PDT 7:59 PM PDT
Moon 9:51 PM PDT (10/9) 11:16 AM PDT (10/9)
Length of Visible Light 12h 20m
Length of Day
11h 28m
Waning Gibbous, 80% of the Moon is Illuminated
Oct 9
Waning Gibbous
Oct 12
Last Quarter
Oct 19
New
Oct 27
First Quarter
Nov 3
Full

Hourly Weather History & Observations

Time (PDT) Temp. Dew Point Humidity Pressure Visibility Wind Dir Wind Speed Gust Speed Precip Events Conditions
12:53 AM 54.0 °F 32.0 °F 43% 29.79 in 10.0 mi East 3.5 mph - N/A   Unknown
1:53 AM 52.0 °F 34.0 °F 50% 29.79 in 10.0 mi Calm Calm - N/A   Unknown
2:53 AM 48.9 °F 34.0 °F 56% 29.81 in 10.0 mi SSE 4.6 mph - N/A   Unknown
3:53 AM 46.9 °F 34.0 °F 61% 29.81 in 10.0 mi Calm Calm - N/A   Unknown
4:53 AM 46.9 °F 35.1 °F 63% 29.82 in 10.0 mi Calm Calm - N/A   Unknown
5:53 AM 48.0 °F 35.1 °F 61% 29.85 in 10.0 mi Calm Calm - N/A   Unknown
6:53 AM 48.9 °F 35.1 °F 59% 29.86 in 10.0 mi ENE 4.6 mph - N/A   Clear
7:53 AM 46.9 °F 37.0 °F 68% 29.90 in 9.0 mi ESE 3.5 mph - N/A   Clear
8:53 AM 55.9 °F 36.0 °F 47% 29.92 in 9.0 mi Calm Calm - N/A   Clear
9:53 AM 62.1 °F 30.0 °F 30% 29.94 in 10.0 mi Variable 3.5 mph - N/A   Clear
10:53 AM 64.9 °F 30.0 °F 27% 29.94 in 10.0 mi Calm Calm - N/A   Clear
11:53 AM 69.1 °F 30.0 °F 23% 29.94 in 10.0 mi Variable 3.5 mph - N/A   Clear
12:53 PM 73.9 °F 30.0 °F 20% 29.94 in 10.0 mi SE 6.9 mph - N/A   Clear
1:53 PM 77.0 °F 28.9 °F 17% 29.92 in 10.0 mi South 10.4 mph - N/A   Clear
2:53 PM 79.0 °F 27.0 °F 15% 29.90 in 10.0 mi South 9.2 mph - N/A   Clear
3:53 PM 81.0 °F 25.0 °F 13% 29.90 in 10.0 mi SSW 9.2 mph - N/A   Clear
4:53 PM 80.1 °F 25.0 °F 13% 29.89 in 10.0 mi South 5.8 mph - N/A   Clear
5:53 PM 75.9 °F 30.0 °F 19% 29.89 in 10.0 mi SE 4.6 mph - N/A   Clear
6:53 PM 69.1 °F 35.1 °F 29% 29.91 in 9.0 mi Calm Calm - N/A   Clear
7:53 PM 68.0 °F 36.0 °F 31% 29.92 in 10.0 mi Calm Calm - N/A   Clear
8:53 PM 64.9 °F 36.0 °F 34% 29.94 in 10.0 mi North 3.5 mph - N/A   Clear
9:53 PM 60.1 °F 37.0 °F 42% 29.94 in 10.0 mi East 3.5 mph - N/A   Clear
10:53 PM 57.9 °F 35.1 °F 42% 29.94 in 10.0 mi Calm Calm - N/A   Clear
11:53 PM 57.0 °F 37.0 °F 47% 29.94 in 9.0 mi SSW 3.5 mph - N/A   Clear